| time (UTC) | temp F | wind direction | speed MPH | gust MPH | rain 1hr in | rain 24hr in | rain mn in | humidity % | barometer mb |
| 20260905025535 | 80 | 277 | 0.0 | 1.0 | 0.00 | 0.11 | 0.11 | 81 | 1014.6 |
| 20260905024531 | 80 | 0.0 | 0.0 | 0.00 | 0.11 | 0.11 | 81 | 1014.7 | |
| 20260905023527 | 80 | 0.0 | 0.0 | 0.00 | 0.11 | 0.11 | 80 | 1014.7 | |
| 20260905022523 | 81 | 277 | 0.0 | 1.0 | 0.00 | 0.11 | 0.11 | 79 | 1014.6 |
| 20260905021519 | 81 | 0.0 | 0.0 | 0.00 | 0.11 | 0.11 | 78 | 1014.7 | |
| 20260905020555 | 81 | 0.0 | 0.0 | 0.00 | 0.11 | 0.11 | 77 | 1014.6 | |
| 20260905015550 | 82 | 277 | 0.0 | 1.0 | 0.00 | 0.11 | 0.11 | 77 | 1014.6 |
| 20260905014526 | 82 | 277 | 0.0 | 1.0 | 0.00 | 0.11 | 0.11 | 76 | 1014.5 |
| 20260905013522 | 83 | 277 | 0.0 | 1.0 | 0.00 | 0.11 | 0.11 | 75 | 1014.5 |
| 20260905012517 | 83 | 277 | 1.0 | 1.0 | 0.00 | 0.11 | 0.11 | 75 | 1014.5 |
| 20260905011533 | 83 | 277 | 0.0 | 1.0 | 0.00 | 0.11 | 0.11 | 75 | 1014.5 |
| 20260905010529 | 84 | 277 | 0.0 | 1.0 | 0.00 | 0.11 | 0.11 | 74 | 1014.3 |
| 20260905005525 | 84 | 0.0 | 0.0 | 0.00 | 0.11 | 0.11 | 73 | 1014.4 | |
| 20260905004520 | 84 | 277 | 0.0 | 1.0 | 0.00 | 0.11 | 0.11 | 73 | 1014.4 |
| 20260905003516 | 85 | 0.0 | 0.0 | 0.00 | 0.11 | 0.11 | 71 | 1014.3 | |
| 20260905002532 | 86 | 277 | 1.0 | 1.0 | 0.00 | 0.11 | 0.11 | 70 | 1014.3 |
| 20260905001528 | 86 | 0.0 | 0.0 | 0.00 | 0.11 | 0.11 | 69 | 1014.3 | |
| 20260905000524 | 87 | 277 | 0.0 | 1.0 | 0.00 | 0.11 | 0.11 | 68 | 1014.4 |
| 20260904235520 | 88 | 277 | 0.0 | 1.0 | 0.00 | 0.11 | 0.11 | 67 | 1014.2 |
| 20260904234535 | 88 | 277 | 0.0 | 1.0 | 0.00 | 0.11 | 0.11 | 66 | 1014.3 |
| 20260904233531 | 89 | 276 | 0.0 | 2.0 | 0.00 | 0.11 | 0.11 | 65 | 1014.3 |
| 20260904232527 | 90 | 276 | 1.0 | 2.0 | 0.00 | 0.11 | 0.11 | 64 | 1014.3 |
| 20260904231523 | 91 | 276 | 1.0 | 3.0 | 0.00 | 0.11 | 0.11 | 64 | 1014.0 |
| 20260904230519 | 92 | 276 | 1.0 | 3.0 | 0.00 | 0.11 | 0.11 | 64 | 1014.0 |
| 20260904225516 | 92 | 276 | 0.0 | 3.0 | 0.00 | 0.11 | 0.11 | 63 | 1013.8 |
| 20260904224532 | 93 | 280 | 1.0 | 2.0 | 0.00 | 0.11 | 0.11 | 61 | 1013.7 |
| 20260904223527 | 94 | 280 | 1.0 | 6.0 | 0.00 | 0.11 | 0.11 | 59 | 1013.7 |
| 20260904222524 | 95 | 288 | 3.0 | 7.0 | 0.00 | 0.11 | 0.11 | 60 | 1013.7 |
| 20260904221519 | 94 | 152 | 1.0 | 4.0 | 0.00 | 0.11 | 0.11 | 63 | 1013.6 |
| 20260904220515 | 93 | 132 | 1.0 | 4.0 | 0.00 | 0.11 | 0.11 | 67 | 1013.6 |
| 20260904215531 | 92 | 126 | 1.0 | 4.0 | 0.00 | 0.11 | 0.11 | 70 | 1013.5 |
| 20260904214527 | 91 | 106 | 1.0 | 1.0 | 0.00 | 0.11 | 0.11 | 75 | 1013.5 |
| 20260904213523 | 88 | 105 | 0.0 | 1.0 | 0.00 | 0.11 | 0.11 | 84 | 1013.4 |
| 20260904212519 | 85 | 105 | 1.0 | 1.0 | 0.00 | 0.11 | 0.11 | 85 | 1013.5 |
| 20260904211535 | 84 | 105 | 1.0 | 2.0 | 0.02 | 0.11 | 0.11 | 88 | 1013.6 |
| 20260904210531 | 82 | 104 | 0.0 | 1.0 | 0.10 | 0.11 | 0.11 | 89 | 1013.7 |
| 20260904205527 | 82 | 104 | 1.0 | 2.0 | 0.11 | 0.11 | 0.11 | 89 | 1013.5 |
| 20260904204523 | 82 | 104 | 1.0 | 1.0 | 0.11 | 0.11 | 0.11 | 86 | 1013.7 |
| 20260904203519 | 83 | 106 | 1.0 | 3.0 | 0.11 | 0.11 | 0.11 | 85 | 1014.1 |
| 20260904202535 | 85 | 106 | 0.0 | 1.0 | 0.10 | 0.10 | 0.10 | 74 | 1014.2 |
| 20260904201531 | 89 | 85 | 1.0 | 3.0 | 0.09 | 0.09 | 0.09 | 69 | 1014.6 |
| 20260904200527 | 97 | 13 | 3.0 | 11.0 | 0.01 | 0.01 | 0.01 | 59 | 1014.5 |
| 20260904195523 | 99 | 297 | 2.0 | 6.0 | 0.00 | 0.00 | 0.00 | 52 | 1014.3 |
| 20260904194519 | 98 | 297 | 1.0 | 3.0 | 0.00 | 0.00 | 0.00 | 54 | 1014.6 |
| 20260904193555 | 99 | 297 | 1.0 | 3.0 | 0.00 | 0.00 | 0.00 | 53 | 1014.6 |
| 20260904192531 | 98 | 297 | 2.0 | 7.0 | 0.00 | 0.00 | 0.00 | 54 | 1014.7 |
| 20260904191527 | 98 | 297 | 1.0 | 4.0 | 0.00 | 0.00 | 0.00 | 53 | 1014.9 |
| 20260904190523 | 98 | 297 | 2.0 | 6.0 | 0.00 | 0.00 | 0.00 | 54 | 1015.0 |
| 20260904185518 | 98 | 297 | 1.0 | 3.0 | 0.00 | 0.00 | 0.00 | 54 | 1015.2 |
| 20260904184535 | 99 | 297 | 2.0 | 4.0 | 0.00 | 0.00 | 0.00 | 55 | 1015.3 |
| 20260904183530 | 99 | 297 | 1.0 | 4.0 | 0.00 | 0.00 | 0.00 | 55 | 1015.4 |
| 20260904182526 | 98 | 297 | 1.0 | 3.0 | 0.00 | 0.00 | 0.00 | 56 | 1015.6 |
| 20260904181522 | 97 | 297 | 1.0 | 4.0 | 0.00 | 0.00 | 0.00 | 57 | 1015.7 |
| 20260904180518 | 95 | 297 | 1.0 | 2.0 | 0.00 | 0.00 | 0.00 | 59 | 1015.9 |
| 20260904175534 | 94 | 297 | 0.0 | 1.0 | 0.00 | 0.00 | 0.00 | 58 | 1016.0 |
| 20260904174530 | 96 | 297 | 1.0 | 6.0 | 0.00 | 0.00 | 0.00 | 58 | 1016.2 |
| 20260904173526 | 96 | 297 | 2.0 | 7.0 | 0.00 | 0.00 | 0.00 | 58 | 1016.1 |
| 20260904172522 | 95 | 296 | 1.0 | 4.0 | 0.00 | 0.00 | 0.00 | 59 | 1016.3 |
| 20260904171518 | 96 | 296 | 0.0 | 2.0 | 0.00 | 0.00 | 0.00 | 59 | 1016.4 |
| 20260904170534 | 94 | 296 | 1.0 | 3.0 | 0.00 | 0.00 | 0.00 | 61 | 1016.6 |
| 20260904165530 | 93 | 296 | 1.0 | 3.0 | 0.00 | 0.00 | 0.00 | 60 | 1016.9 |
| 20260904164525 | 93 | 296 | 1.0 | 6.0 | 0.00 | 0.00 | 0.00 | 61 | 1016.7 |
| 20260904163541 | 93 | 296 | 1.0 | 3.0 | 0.00 | 0.00 | 0.00 | 62 | 1017.0 |
| 20260904162537 | 92 | 296 | 1.0 | 3.0 | 0.00 | 0.00 | 0.00 | 62 | 1017.0 |
| 20260904161533 | 92 | 296 | 1.0 | 3.0 | 0.00 | 0.00 | 0.00 | 63 | 1017.1 |
| 20260904160529 | 92 | 296 | 0.0 | 2.0 | 0.00 | 0.00 | 0.00 | 62 | 1017.1 |
| 20260904155525 | 93 | 296 | 1.0 | 2.0 | 0.00 | 0.00 | 0.00 | 62 | 1017.1 |
| 20260904154521 | 92 | 296 | 1.0 | 3.0 | 0.00 | 0.00 | 0.00 | 65 | 1017.1 |
| 20260904153517 | 92 | 296 | 0.0 | 2.0 | 0.00 | 0.00 | 0.00 | 65 | 1017.1 |
| 20260904152533 | 91 | 296 | 1.0 | 3.0 | 0.00 | 0.00 | 0.00 | 66 | 1017.1 |
| 20260904151549 | 90 | 296 | 0.0 | 1.0 | 0.00 | 0.00 | 0.00 | 66 | 1017.1 |
| 20260904150545 | 90 | 296 | 1.0 | 2.0 | 0.00 | 0.00 | 0.00 | 69 | 1017.0 |
| 20260904145521 | 90 | 296 | 1.0 | 3.0 | 0.00 | 0.00 | 0.00 | 69 | 1017.0 |
| 20260904144517 | 89 | 296 | 1.0 | 2.0 | 0.00 | 0.00 | 0.00 | 70 | 1016.9 |
| 20260904143533 | 88 | 296 | 1.0 | 4.0 | 0.00 | 0.00 | 0.00 | 70 | 1016.8 |
| 20260904142529 | 88 | 296 | 1.0 | 3.0 | 0.00 | 0.00 | 0.00 | 72 | 1016.9 |
| 20260904141545 | 87 | 296 | 0.0 | 2.0 | 0.00 | 0.00 | 0.00 | 74 | 1016.9 |
| 20260904140541 | 86 | 296 | 0.0 | 1.0 | 0.00 | 0.00 | 0.00 | 75 | 1016.9 |
| 20260904135518 | 85 | 296 | 0.0 | 2.0 | 0.00 | 0.00 | 0.00 | 77 | 1016.7 |
| 20260904134534 | 84 | 297 | 0.0 | 1.0 | 0.00 | 0.00 | 0.00 | 80 | 1016.7 |
| 20260904133550 | 83 | 297 | 1.0 | 2.0 | 0.00 | 0.00 | 0.00 | 82 | 1016.7 |
| 20260904132526 | 82 | 297 | 1.0 | 2.0 | 0.00 | 0.00 | 0.00 | 84 | 1016.9 |
| 20260904131522 | 81 | 297 | 0.0 | 2.0 | 0.00 | 0.00 | 0.00 | 86 | 1016.8 |
| 20260904130518 | 80 | 297 | 0.0 | 1.0 | 0.00 | 0.00 | 0.00 | 88 | 1016.8 |
| 20260904125534 | 79 | 297 | 0.0 | 1.0 | 0.00 | 0.00 | 0.00 | 90 | 1016.7 |
| 20260904124530 | 78 | 0.0 | 0.0 | 0.00 | 0.00 | 0.00 | 91 | 1016.7 | |
| 20260904123526 | 77 | 0.0 | 0.0 | 0.00 | 0.00 | 0.00 | 92 | 1016.7 | |
| 20260904122522 | 76 | 0.0 | 0.0 | 0.00 | 0.00 | 0.00 | 93 | 1016.5 | |
| 20260904121518 | 76 | 0.0 | 0.0 | 0.00 | 0.00 | 0.00 | 93 | 1016.4 | |
| 20260904120534 | 76 | 0.0 | 0.0 | 0.00 | 0.00 | 0.00 | 92 | 1016.4 | |
| 20260904115530 | 75 | 0.0 | 0.0 | 0.00 | 0.00 | 0.00 | 92 | 1016.3 | |
| 20260904114546 | 75 | 0.0 | 0.0 | 0.00 | 0.00 | 0.00 | 92 | 1016.2 | |
| 20260904113522 | 75 | 0.0 | 0.0 | 0.00 | 0.00 | 0.00 | 92 | 1016.2 | |
| 20260904112518 | 75 | 0.0 | 0.0 | 0.00 | 0.00 | 0.00 | 92 | 1016.2 | |
| 20260904111534 | 75 | 0.0 | 0.0 | 0.00 | 0.00 | 0.00 | 91 | 1016.1 | |
| 20260904110531 | 75 | 0.0 | 0.0 | 0.00 | 0.00 | 0.00 | 91 | 1015.9 | |
| 20260904105526 | 76 | 0.0 | 0.0 | 0.00 | 0.00 | 0.00 | 91 | 1015.8 | |
| 20260904104542 | 76 | 0.0 | 0.0 | 0.00 | 0.00 | 0.00 | 91 | 1015.7 | |
| 20260904103518 | 76 | 0.0 | 0.0 | 0.00 | 0.00 | 0.00 | 91 | 1015.6 | |
| 20260904102555 | 76 | 0.0 | 0.0 | 0.00 | 0.00 | 0.00 | 90 | 1015.6 | |
| 20260904101531 | 76 | 297 | 0.0 | 1.0 | 0.00 | 0.00 | 0.00 | 90 | 1015.5 |
| 20260904100527 | 76 | 0.0 | 0.0 | 0.00 | 0.00 | 0.00 | 90 | 1015.3 | |
| 20260904095523 | 76 | 0.0 | 0.0 | 0.00 | 0.00 | 0.00 | 90 | 1015.4 | |
| 20260904094539 | 76 | 0.0 | 0.0 | 0.00 | 0.00 | 0.00 | 89 | 1015.3 | |
| 20260904093535 | 76 | 0.0 | 0.0 | 0.00 | 0.00 | 0.00 | 89 | 1015.2 | |
| 20260904092551 | 76 | 0.0 | 0.0 | 0.00 | 0.00 | 0.00 | 89 | 1015.1 | |
| 20260904091527 | 77 | 0.0 | 0.0 | 0.00 | 0.00 | 0.00 | 88 | 1015.2 | |
| 20260904090523 | 77 | 0.0 | 0.0 | 0.00 | 0.00 | 0.00 | 88 | 1015.2 | |
| 20260904085519 | 77 | 297 | 0.0 | 1.0 | 0.00 | 0.00 | 0.00 | 88 | 1015.0 |
| 20260904084555 | 77 | 297 | 0.0 | 1.0 | 0.00 | 0.00 | 0.00 | 87 | 1015.0 |
| 20260904083531 | 77 | 297 | 0.0 | 1.0 | 0.00 | 0.00 | 0.00 | 87 | 1015.1 |
| 20260904082527 | 77 | 0.0 | 0.0 | 0.00 | 0.00 | 0.00 | 88 | 1015.0 | |
| 20260904081543 | 77 | 297 | 0.0 | 1.0 | 0.00 | 0.00 | 0.00 | 87 | 1015.0 |
| 20260904080519 | 77 | 0.0 | 0.0 | 0.00 | 0.00 | 0.00 | 87 | 1014.9 | |
| 20260904075535 | 78 | 297 | 0.0 | 1.0 | 0.00 | 0.00 | 0.00 | 87 | 1014.9 |
| 20260904074531 | 78 | 297 | 0.0 | 1.0 | 0.00 | 0.00 | 0.00 | 87 | 1014.9 |
| 20260904073547 | 78 | 297 | 0.0 | 1.0 | 0.00 | 0.00 | 0.00 | 87 | 1014.8 |
| 20260904071519 | 78 | 297 | 0.0 | 1.0 | 0.00 | 0.00 | 0.00 | 86 | 1015.0 |
| 20260904070534 | 78 | 297 | 0.0 | 1.0 | 0.00 | 0.00 | 0.00 | 85 | 1015.0 |
| 20260904065531 | 78 | 297 | 0.0 | 1.0 | 0.00 | 0.00 | 0.00 | 85 | 1015.2 |
| 20260904064527 | 78 | 297 | 0.0 | 1.0 | 0.00 | 0.00 | 0.00 | 85 | 1015.2 |
| 20260904063523 | 78 | 0.0 | 0.0 | 0.00 | 0.00 | 0.00 | 84 | 1015.2 | |
| 20260904062519 | 79 | 297 | 0.0 | 1.0 | 0.00 | 0.00 | 0.00 | 84 | 1015.2 |
| 20260904061555 | 79 | 0.0 | 0.0 | 0.00 | 0.00 | 0.00 | 83 | 1015.2 | |
| 20260904060531 | 79 | 0.0 | 0.0 | 0.00 | 0.00 | 0.00 | 83 | 1015.2 | |
| 20260904055527 | 79 | 297 | 0.0 | 1.0 | 0.00 | 0.00 | 0.00 | 82 | 1015.4 |
| 20260904054523 | 79 | 297 | 0.0 | 1.0 | 0.00 | 0.00 | 0.00 | 82 | 1015.3 |
| 20260904053519 | 80 | 0.0 | 0.0 | 0.00 | 0.00 | 0.00 | 82 | 1015.4 | |
| 20260904052535 | 80 | 297 | 0.0 | 1.0 | 0.00 | 0.00 | 0.00 | 81 | 1015.4 |
| 20260904051551 | 80 | 297 | 0.0 | 1.0 | 0.00 | 0.00 | 0.00 | 81 | 1015.4 |
| 20260904050527 | 80 | 0.0 | 0.0 | 0.00 | 0.00 | 0.00 | 80 | 1015.5 | |
| 20260904045523 | 80 | 0.0 | 0.0 | 0.00 | 0.00 | 0.00 | 80 | 1015.4 | |
| 20260904044519 | 81 | 297 | 0.0 | 1.0 | 0.00 | 0.00 | 0.00 | 80 | 1015.4 |
| 20260904043535 | 81 | 297 | 0.0 | 1.0 | 0.00 | 0.00 | 0.00 | 79 | 1015.5 |
| 20260904042551 | 81 | 297 | 0.0 | 1.0 | 0.00 | 0.00 | 0.00 | 79 | 1015.5 |
| 20260904041547 | 81 | 297 | 0.0 | 1.0 | 0.00 | 0.00 | 0.00 | 78 | 1015.5 |
| 20260904040543 | 81 | 297 | 0.0 | 1.0 | 0.00 | 0.00 | 0.00 | 78 | 1015.6 |
| 20260904035519 | 82 | 0.0 | 0.0 | 0.00 | 0.00 | 0.00 | 77 | 1015.6 | |
| 20260904034535 | 82 | 297 | 0.0 | 1.0 | 0.00 | 0.00 | 0.00 | 76 | 1015.7 |
| 20260904033551 | 83 | 297 | 0.0 | 1.0 | 0.00 | 0.00 | 0.00 | 76 | 1015.9 |
| 20260904032527 | 83 | 297 | 0.0 | 1.0 | 0.00 | 0.00 | 0.00 | 76 | 1015.8 |
| 20260904031543 | 83 | 297 | 0.0 | 1.0 | 0.00 | 0.00 | 0.00 | 75 | 1016.0 |
| 20260904030518 | 83 | 0.0 | 0.0 | 0.00 | 0.00 | 0.00 | 75 | 1015.9 |